Time,TemperatureF,DewpointF,PressureIn,WindDirection,WindDirectionDegrees,WindSpeedMPH,WindSpeedGustMPH,Humidity,HourlyPrecipIn,Conditions,Clouds,dailyrainin,SoftwareType,DateUTC
2013-01-21 00:06:00,-999.0,-99.9,30.10,West,274,0.0,7.0,-999,0.00,,,0.00,weatherlink.com 1.10,2013-01-21 05:06:00,
2013-01-21 00:21:00,-999.0,-99.9,30.09,West,275,0.0,7.0,-999,0.00,,,0.00,weatherlink.com 1.10,2013-01-21 05:21:00,
2013-01-21 00:36:00,-999.0,-99.9,30.09,WNW,284,9.0,9.0,-999,0.00,,,0.00,weatherlink.com 1.10,2013-01-21 05:36:00,
2013-01-21 00:51:00,-999.0,-99.9,30.09,WNW,300,2.0,9.0,-999,0.00,,,0.00,weatherlink.com 1.10,2013-01-21 05:51:00,
2013-01-21 01:06:00,-999.0,-99.9,30.09,WNW,298,3.0,7.0,-999,0.00,,,0.00,weatherlink.com 1.10,2013-01-21 06:06:00,
2013-01-21 01:21:00,-999.0,-99.9,30.08,WNW,298,5.0,5.0,-999,0.00,,,0.00,weatherlink.com 1.10,2013-01-21 06:21:00,
2013-01-21 01:36:00,-999.0,-99.9,30.08,WNW,298,0.0,8.0,-999,0.00,,,0.00,weatherlink.com 1.10,2013-01-21 06:36:00,
2013-01-21 01:51:00,-999.0,-99.9,30.08,WNW,296,0.0,7.0,-999,0.00,,,0.00,weatherlink.com 1.10,2013-01-21 06:51:00,
2013-01-21 02:06:00,-999.0,-99.9,30.08,WNW,296,0.0,6.0,-999,0.00,,,0.00,weatherlink.com 1.10,2013-01-21 07:06:00,
2013-01-21 02:21:00,-999.0,-99.9,30.08,WNW,296,0.0,0.0,-999,0.00,,,0.00,weatherlink.com 1.10,2013-01-21 07:21:00,
2013-01-21 02:51:00,-999.0,-99.9,30.08,WNW,296,0.0,6.0,-999,0.00,,,0.00,weatherlink.com 1.10,2013-01-21 07:51:00,
2013-01-21 03:06:00,-999.0,-99.9,30.07,WNW,296,0.0,0.0,-999,0.00,,,0.00,weatherlink.com 1.10,2013-01-21 08:06:00,
2013-01-21 03:22:00,-999.0,-99.9,30.07,WNW,296,0.0,0.0,-999,0.00,,,0.00,weatherlink.com 1.10,2013-01-21 08:22:00,
2013-01-21 03:37:00,-999.0,-99.9,30.07,WNW,296,0.0,4.0,-999,0.00,,,0.00,weatherlink.com 1.10,2013-01-21 08:37:00,
2013-01-21 03:52:00,-999.0,-99.9,30.06,WNW,296,0.0,6.0,-999,0.00,,,0.00,weatherlink.com 1.10,2013-01-21 08:52:00,
2013-01-21 04:07:00,-999.0,-99.9,30.06,WNW,296,0.0,0.0,-999,0.00,,,0.00,weatherlink.com 1.10,2013-01-21 09:07:00,
2013-01-21 04:22:00,-999.0,-99.9,30.06,WNW,296,0.0,0.0,-999,0.00,,,0.00,weatherlink.com 1.10,2013-01-21 09:22:00,
2013-01-21 04:37:00,-999.0,-99.9,30.06,WNW,296,0.0,0.0,-999,0.00,,,0.00,weatherlink.com 1.10,2013-01-21 09:37:00,
2013-01-21 04:52:00,-999.0,-99.9,30.05,WNW,296,0.0,0.0,-999,0.00,,,0.00,weatherlink.com 1.10,2013-01-21 09:52:00,
2013-01-21 05:07:00,-999.0,-99.9,30.05,WNW,296,0.0,1.0,-999,0.00,,,0.00,weatherlink.com 1.10,2013-01-21 10:07:00,
2013-01-21 05:22:00,-999.0,-99.9,30.05,WNW,296,0.0,6.0,-999,0.00,,,0.00,weatherlink.com 1.10,2013-01-21 10:22:00,
2013-01-21 05:37:00,-999.0,-99.9,30.05,WNW,296,0.0,0.0,-999,0.00,,,0.00,weatherlink.com 1.10,2013-01-21 10:37:00,
2013-01-21 05:52:00,-999.0,-99.9,30.06,WNW,296,0.0,0.0,-999,0.00,,,0.00,weatherlink.com 1.10,2013-01-21 10:52:00,
2013-01-21 06:07:00,-999.0,-99.9,30.06,WNW,296,0.0,0.0,-999,0.00,,,0.00,weatherlink.com 1.10,2013-01-21 11:07:00,
2013-01-21 06:22:00,-999.0,-99.9,30.06,WNW,296,0.0,0.0,-999,0.00,,,0.00,weatherlink.com 1.10,2013-01-21 11:22:00,
2013-01-21 06:37:00,-999.0,-99.9,30.06,WNW,296,0.0,0.0,-999,0.00,,,0.00,weatherlink.com 1.10,2013-01-21 11:37:00,
2013-01-21 06:53:00,-999.0,-99.9,30.07,WNW,296,0.0,2.0,-999,0.00,,,0.00,weatherlink.com 1.10,2013-01-21 11:53:00,
2013-01-21 07:08:00,-999.0,-99.9,30.07,WNW,296,0.0,0.0,-999,0.00,,,0.00,weatherlink.com 1.10,2013-01-21 12:08:00,
2013-01-21 07:23:00,-999.0,-99.9,30.07,WNW,297,0.0,8.0,-999,0.00,,,0.00,weatherlink.com 1.10,2013-01-21 12:23:00,
2013-01-21 07:38:00,-999.0,-99.9,30.07,WNW,297,0.0,3.0,-999,0.00,,,0.00,weatherlink.com 1.10,2013-01-21 12:38:00,
2013-01-21 07:53:00,-999.0,-99.9,30.08,WNW,297,0.0,0.0,-999,0.00,,,0.00,weatherlink.com 1.10,2013-01-21 12:53:00,
2013-01-21 08:08:00,-999.0,-99.9,30.08,WNW,297,0.0,6.0,-999,0.00,,,0.00,weatherlink.com 1.10,2013-01-21 13:08:00,
2013-01-21 08:23:00,-999.0,-99.9,30.08,WNW,298,0.0,8.0,-999,0.00,,,0.00,weatherlink.com 1.10,2013-01-21 13:23:00,
2013-01-21 08:38:00,-999.0,-99.9,30.09,WNW,298,0.0,0.0,-999,0.00,,,0.00,weatherlink.com 1.10,2013-01-21 13:38:00,
2013-01-21 08:53:00,-999.0,-99.9,30.09,WNW,298,0.0,0.0,-999,0.00,,,0.00,weatherlink.com 1.10,2013-01-21 13:53:00,
2013-01-21 09:08:00,-999.0,-99.9,30.10,WNW,298,0.0,0.0,-999,0.00,,,0.00,weatherlink.com 1.10,2013-01-21 14:08:00,
2013-01-21 09:23:00,-999.0,-99.9,30.10,WNW,298,0.0,0.0,-999,0.00,,,0.00,weatherlink.com 1.10,2013-01-21 14:23:00,
2013-01-21 09:38:00,-999.0,-99.9,30.11,WNW,298,0.0,0.0,-999,0.00,,,0.00,weatherlink.com 1.10,2013-01-21 14:38:00,
2013-01-21 09:53:00,-999.0,-99.9,30.11,WNW,298,0.0,4.0,-999,0.00,,,0.00,weatherlink.com 1.10,2013-01-21 14:53:00,
2013-01-21 10:08:00,-999.0,-99.9,30.11,WNW,295,0.0,5.0,-999,0.00,,,0.00,weatherlink.com 1.10,2013-01-21 15:08:00,
2013-01-21 10:24:00,-999.0,-99.9,30.11,WNW,290,0.0,5.0,-999,0.00,,,0.00,weatherlink.com 1.10,2013-01-21 15:24:00,
2013-01-21 10:39:00,-999.0,-99.9,30.10,West,277,4.0,6.0,-999,0.00,,,0.00,weatherlink.com 1.10,2013-01-21 15:39:00,
2013-01-21 10:54:00,-999.0,-99.9,30.10,WSW,257,5.0,8.0,-999,0.00,,,0.00,weatherlink.com 1.10,2013-01-21 15:54:00,
2013-01-21 11:09:00,-999.0,-99.9,30.09,SW,234,6.0,10.0,-999,0.00,,,0.00,weatherlink.com 1.10,2013-01-21 16:09:00,
2013-01-21 11:24:00,-999.0,-99.9,30.09,SW,230,0.0,8.0,-999,0.00,,,0.00,weatherlink.com 1.10,2013-01-21 16:24:00,
2013-01-21 11:39:00,-999.0,-99.9,30.08,West,269,5.0,12.0,-999,0.00,,,0.00,weatherlink.com 1.10,2013-01-21 16:39:00,
2013-01-21 11:54:00,-999.0,-99.9,30.07,WSW,257,7.0,14.0,-999,0.00,,,0.00,weatherlink.com 1.10,2013-01-21 16:54:00,
2013-01-21 12:09:00,-999.0,-99.9,30.06,West,266,14.0,16.0,-999,0.00,,,0.00,weatherlink.com 1.10,2013-01-21 17:09:00,
2013-01-21 12:24:00,-999.0,-99.9,30.05,West,261,4.0,16.0,-999,0.00,,,0.00,weatherlink.com 1.10,2013-01-21 17:24:00,
2013-01-21 12:39:00,-999.0,-99.9,30.04,West,278,6.0,15.0,-999,0.00,,,0.00,weatherlink.com 1.10,2013-01-21 17:39:00,
2013-01-21 12:54:00,-999.0,-99.9,30.03,WNW,303,1.0,14.0,-999,0.00,,,0.00,weatherlink.com 1.10,2013-01-21 17:54:00,
2013-01-21 13:09:00,-999.0,-99.9,30.02,WNW,286,9.0,12.0,-999,0.00,,,0.00,weatherlink.com 1.10,2013-01-21 18:09:00,
2013-01-21 13:24:00,-999.0,-99.9,30.01,SW,227,5.0,12.0,-999,0.00,,,0.00,weatherlink.com 1.10,2013-01-21 18:24:00,
2013-01-21 13:40:00,-999.0,-99.9,30.01,SW,232,4.0,13.0,-999,0.00,,,0.00,weatherlink.com 1.10,2013-01-21 18:40:00,
2013-01-21 13:55:00,-999.0,-99.9,30.00,WSW,254,7.0,12.0,-999,0.00,,,0.00,weatherlink.com 1.10,2013-01-21 18:55:00,
2013-01-21 14:10:00,-999.0,-99.9,30.00,SW,227,6.0,14.0,-999,0.00,,,0.00,weatherlink.com 1.10,2013-01-21 19:10:00,
2013-01-21 14:25:00,-999.0,-99.9,29.99,WSW,242,2.0,7.0,-999,0.00,,,0.00,weatherlink.com 1.10,2013-01-21 19:25:00,
2013-01-21 14:40:00,-999.0,-99.9,29.99,SW,234,2.0,14.0,-999,0.00,,,0.00,weatherlink.com 1.10,2013-01-21 19:40:00,
2013-01-21 14:55:00,-999.0,-99.9,29.98,WSW,237,2.0,11.0,-999,0.00,,,0.00,weatherlink.com 1.10,2013-01-21 19:55:00,
2013-01-21 15:10:00,-999.0,-99.9,29.98,WSW,243,5.0,12.0,-999,0.00,,,0.00,weatherlink.com 1.10,2013-01-21 20:10:00,
2013-01-21 15:25:00,-999.0,-99.9,29.98,WSW,254,4.0,13.0,-999,0.00,,,0.00,weatherlink.com 1.10,2013-01-21 20:25:00,
2013-01-21 15:40:00,-999.0,-99.9,29.98,WSW,241,0.0,11.0,-999,0.00,,,0.00,weatherlink.com 1.10,2013-01-21 20:40:00,
2013-01-21 15:55:00,-999.0,-99.9,29.98,SW,229,3.0,10.0,-999,0.00,,,0.00,weatherlink.com 1.10,2013-01-21 20:55:00,
2013-01-21 16:10:00,-999.0,-99.9,29.98,SW,227,2.0,11.0,-999,0.00,,,0.00,weatherlink.com 1.10,2013-01-21 21:10:00,
2013-01-21 16:25:00,-999.0,-99.9,29.98,SW,233,6.0,11.0,-999,0.00,,,0.00,weatherlink.com 1.10,2013-01-21 21:25:00,
2013-01-21 16:40:00,-999.0,-99.9,29.99,WSW,253,0.0,7.0,-999,0.00,,,0.00,weatherlink.com 1.10,2013-01-21 21:40:00,
2013-01-21 16:55:00,-999.0,-99.9,29.99,WSW,239,0.0,8.0,-999,0.00,,,0.00,weatherlink.com 1.10,2013-01-21 21:55:00,
2013-01-21 17:11:00,-999.0,-99.9,29.98,SW,234,0.0,6.0,-999,0.00,,,0.00,weatherlink.com 1.10,2013-01-21 22:11:00,
2013-01-21 17:26:00,-999.0,-99.9,29.98,SW,233,0.0,5.0,-999,0.00,,,0.00,weatherlink.com 1.10,2013-01-21 22:26:00,
2013-01-21 17:41:00,-999.0,-99.9,29.99,SW,233,0.0,4.0,-999,0.00,,,0.00,weatherlink.com 1.10,2013-01-21 22:41:00,
2013-01-21 17:56:00,-999.0,-99.9,29.99,SW,233,0.0,2.0,-999,0.00,,,0.00,weatherlink.com 1.10,2013-01-21 22:56:00,
2013-01-21 18:11:00,57.5,46.0,30.00,SW,236,5.0,6.0,66,0.00,,,0.00,weatherlink.com 1.10,2013-01-21 23:11:00,
2013-01-21 18:26:00,57.3,47.0,30.00,SW,236,4.0,6.0,69,0.00,,,0.00,weatherlink.com 1.10,2013-01-21 23:26:00,
2013-01-21 18:41:00,56.2,46.0,30.00,SW,236,1.0,6.0,68,0.00,,,0.00,weatherlink.com 1.10,2013-01-21 23:41:00,
2013-01-21 18:56:00,56.4,45.0,30.01,WSW,238,3.0,7.0,65,0.00,,,0.00,weatherlink.com 1.10,2013-01-21 23:56:00,
2013-01-21 19:11:00,56.5,44.0,30.01,WSW,238,6.0,7.0,64,0.00,,,0.00,weatherlink.com 1.10,2013-01-22 00:11:00,
2013-01-21 19:26:00,56.3,44.0,30.01,WSW,241,2.0,7.0,64,0.00,,,0.00,weatherlink.com 1.10,2013-01-22 00:26:00,
2013-01-21 19:41:00,56.1,44.0,30.02,WSW,244,4.0,7.0,64,0.00,,,0.00,weatherlink.com 1.10,2013-01-22 00:41:00,
2013-01-21 19:56:00,55.8,44.0,30.02,WSW,245,5.0,7.0,64,0.00,,,0.00,weatherlink.com 1.10,2013-01-22 00:56:00,
2013-01-21 20:11:00,55.9,43.0,30.02,WSW,245,5.0,8.0,63,0.00,,,0.00,weatherlink.com 1.10,2013-01-22 01:11:00,
2013-01-21 20:26:00,55.7,43.0,30.02,WSW,248,6.0,7.0,63,0.00,,,0.00,weatherlink.com 1.10,2013-01-22 01:26:00,
2013-01-21 20:41:00,55.9,43.0,30.02,WSW,254,4.0,9.0,62,0.00,,,0.00,weatherlink.com 1.10,2013-01-22 01:41:00,
2013-01-21 20:56:00,55.8,43.0,30.02,West,259,2.0,10.0,63,0.00,,,0.00,weatherlink.com 1.10,2013-01-22 01:56:00,
2013-01-21 21:11:00,55.5,42.0,30.02,WSW,258,2.0,9.0,62,0.00,,,0.00,weatherlink.com 1.10,2013-01-22 02:11:00,
2013-01-21 21:26:00,55.1,43.0,30.03,WSW,258,3.0,9.0,63,0.00,,,0.00,weatherlink.com 1.10,2013-01-22 02:26:00,
2013-01-21 21:41:00,54.6,41.0,30.04,West,259,0.0,8.0,61,0.00,,,0.00,weatherlink.com 1.10,2013-01-22 02:41:00,
2013-01-21 21:56:00,54.4,41.0,30.04,WSW,255,4.0,9.0,60,0.00,,,0.00,weatherlink.com 1.10,2013-01-22 02:56:00,
2013-01-21 22:11:00,54.8,41.0,30.04,WSW,252,3.0,10.0,60,0.00,,,0.00,weatherlink.com 1.10,2013-01-22 03:11:00,
2013-01-21 22:26:00,54.6,40.0,30.05,West,261,6.0,9.0,58,0.00,,,0.00,weatherlink.com 1.10,2013-01-22 03:26:00,
2013-01-21 22:41:00,53.6,41.0,30.05,West,261,3.0,7.0,62,0.00,,,0.00,weatherlink.com 1.10,2013-01-22 03:41:00,
2013-01-21 22:56:00,53.7,40.0,30.05,West,267,3.0,8.0,60,0.00,,,0.00,weatherlink.com 1.10,2013-01-22 03:56:00,
2013-01-21 23:12:00,53.5,39.0,30.05,West,267,2.0,9.0,59,0.00,,,0.00,weatherlink.com 1.10,2013-01-22 04:12:00,
2013-01-21 23:27:00,53.3,39.0,30.05,West,272,5.0,9.0,59,0.00,,,0.00,weatherlink.com 1.10,2013-01-22 04:27:00,
2013-01-21 23:42:00,53.2,39.0,30.05,West,280,4.0,12.0,59,0.00,,,0.00,weatherlink.com 1.10,2013-01-22 04:42:00,
2013-01-21 23:57:00,53.1,38.0,30.05,West,271,9.0,13.0,58,0.00,,,0.00,weatherlink.com 1.10,2013-01-22 04:57:00,